Regional Weather Roundup
Issued by NWS

Home | Current Version | Previous Version | Graphics & Text | Print | Product List | Glossary On
Versions: 1 2 3 4 5 6 7 8 9 10 11 12 13 14 15 16 17 18 19 20 21 22 23 24 25 26 27 28 29 30 31 32 33 34 35 36 37 38 39 40 41 42 43 44 45 46 47 48 49 50
000
ASUS43 KOAX 131802
RWRNE

WEATHER ROUNDUP FOR NEBRASKA
NATIONAL WEATHER SERVICE OMAHA NE
100 PM CDT SUN JUL 13 2014

NOTES: SATELLITE DATA IS BEING USED TO AUGMENT CLOUD COVER ABOVE
       12000 FEET.
       "FAIR" INDICATES FEW OR NO CLOUDS BELOW 12,000 FEET WITH NO
       SIGNIFICANT WEATHER AND/OR OBSTRUCTIONS TO VISIBILITY.

  * THESE STATIONS DO NOT REPORT WEATHER SUCH AS RAIN...SNOW OR FOG.

NEZ001>004-019>022-054>056-131900-
NEBRASKA PANHANDLE

CITY           SKY/WX    TMP DP  RH WIND       PRES   REMARKS
SCOTTSBLUFF    SUNNY     81  62  52 VRB5      30.23F
6HR MIN TEMP:  63; 6HR MAX TEMP:  81;

ALLIANCE       SUNNY     85  49  28 N9        30.22F
6HR MIN TEMP:  55; 6HR MAX TEMP:  85;

CHADRON        SUNNY     84  58  40 N6        30.18F
6HR MIN TEMP:  55; 6HR MAX TEMP:  84;

KIMBALL        PTSUNNY   78  59  51 CALM      30.28F
SIDNEY         PTSUNNY   83  58  42 N8        30.26F
6HR MIN TEMP:  57; 6HR MAX TEMP:  86;

$$

NEZ057>060-069>072-079>082-131900-
SOUTHWEST NEBRASKA

CITY           SKY/WX    TMP DP  RH WIND       PRES   REMARKS
NORTH PLATTE   SUNNY     84  55  36 NW5G17    30.16F
6HR MIN TEMP:  62; 6HR MAX TEMP:  85;

IMPERIAL       SUNNY     83  61  47 NW3       30.20F
6HR MIN TEMP:  63; 6HR MAX TEMP:  85;

LEXINGTON      SUNNY     84  61  45 NW8       30.14F
MCCOOK         MOSUNNY   85  60  42 CALM      30.17S
6HR MIN TEMP:  65; 6HR MAX TEMP:  86;

OGALLALA       MOSUNNY   81  60  49 CALM      30.20S
$$

NEZ005>010-023>029-035>040-094-131900-
NORTH CENTRAL NEBRASKA

CITY           SKY/WX    TMP DP  RH WIND       PRES   REMARKS
VALENTINE      SUNNY     83  54  36 NW12      30.15F
6HR MIN TEMP:  63; 6HR MAX TEMP:  83;

AINSWORTH      MOSUNNY   81  54  39 NW10      30.15S
BROKEN BOW     MOSUNNY   83  64  52 NW8       30.14F
6HR MIN TEMP:  61; 6HR MAX TEMP:  83;

O`NEILL        PTSUNNY   82  65  55 W8        30.10S
ORD            MOSUNNY   82  65  56 NW10      30.09F
6HR MIN TEMP:  62; 6HR MAX TEMP:  83;

THEDFORD       MOSUNNY   85  58  40 N10G18    30.16F
$$

NEZ041-046>049-061>064-073>077-083>087-131900-
SOUTH CENTRAL NEBRASKA

CITY           SKY/WX    TMP DP  RH WIND       PRES   REMARKS
GRAND ISLAND   MOSUNNY   84  66  54 VRB7      30.10F
6HR MIN TEMP:  67; 6HR MAX TEMP:  85;

AURORA         MOSUNNY   83  65  55 W3        30.09F
HASTINGS       SUNNY     83  63  50 CALM      30.11F
6HR MIN TEMP:  66; 6HR MAX TEMP:  84;

HEBRON         SUNNY     85  66  52 N7        30.08S
HOLDREGE       SUNNY     82  61  49 N3        30.14S
KEARNEY *      MOSUNNY   84  57  39 NW3       30.13S
YORK           MOSUNNY   84  66  54 NW7       30.08F
$$

NEZ011>018-030>034-042>045-131900-
NORTHEAST NEBRASKA

CITY           SKY/WX    TMP DP  RH WIND       PRES   REMARKS
NORFOLK        MOSUNNY   83  66  56 W8        30.06F
6HR MIN TEMP:  65; 6HR MAX TEMP:  83;

ALBION         MOSUNNY   81  64  57 W10G20    30.08S
BLAIR          PTSUNNY   83  63  51 W7        30.04F
TEKAMAH        SUNNY     86  67  52 NW7       30.02F
6HR MIN TEMP:  64; 6HR MAX TEMP:  87;

WAYNE          MOSUNNY   82  69  64 N6        30.05F
$$

NEZ050>053-065>068-078-088>093-131900-
SOUTHEAST NEBRASKA

CITY           SKY/WX    TMP DP  RH WIND       PRES   REMARKS
LINCOLN        SUNNY     88  63  43 N9        30.05F
6HR MIN TEMP:  68; 6HR MAX TEMP:  89;

OMAHA EPPLEY   MOSUNNY   86  66  51 N7        30.03F
6HR MIN TEMP:  69; 6HR MAX TEMP:  86;

BEATRICE       SUNNY     81  66  61 N5        30.06F
FALLS CITY     MOSUNNY   84  71  65 VRB3      30.03F
6HR MIN TEMP:  71; 6HR MAX TEMP:  84;

NEBRASKA CITY  SUNNY     82  66  59 NE5       30.04S
PLATTSMOUTH    SUNNY     84  64  49 NW6       30.04F
$$

NEZ044-045-051>053-067-131900-
OMAHA AREA

CITY           SKY/WX    TMP DP  RH WIND       PRES   REMARKS
OMAHA EPPLEY   MOSUNNY   86  66  51 N7        30.03F
6HR MIN TEMP:  69; 6HR MAX TEMP:  86;

BLAIR          PTSUNNY   83  63  51 W7        30.04F
MILLARD        MOSUNNY   84  67  57 W3        30.03F
OFFUTT AFB     SUNNY     85  67  54 W10       30.03F
PLATTSMOUTH    SUNNY     84  64  49 NW6       30.04F
WAHOO          FAIR      85  67  53 W7        30.05F
$$



USA.gov is the U.S. government's official web portal to all federal, state and local government web resources and services.